TimeMDT,TemperatureF,Dew PointF,Humidity,Sea Level PressureIn,VisibilityMPH,Wind Direction,Wind SpeedMPH,Gust SpeedMPH,PrecipitationIn,Events,Conditions,WindDirDegrees,DateUTC
12:15 AM,39.2,23.0,52,30.03,10.0,Calm,Calm,-,N/A,,Clear,0,2012-10-09 06:15:00
12:35 AM,35.6,23.0,60,30.03,10.0,East,4.6,-,N/A,,Clear,90,2012-10-09 06:35:00
12:55 AM,35.6,23.0,60,30.03,10.0,Calm,Calm,-,N/A,,Clear,0,2012-10-09 06:55:00
1:35 AM,33.8,23.0,65,30.03,10.0,Calm,Calm,-,N/A,,Clear,0,2012-10-09 07:35:00
1:55 AM,32.0,26.6,80,30.03,10.0,Calm,Calm,-,N/A,,Clear,0,2012-10-09 07:55:00
2:15 AM,32.0,24.8,75,30.03,10.0,Calm,Calm,-,N/A,,Clear,0,2012-10-09 08:15:00
2:35 AM,32.0,23.0,69,30.05,10.0,Calm,Calm,-,N/A,,Clear,0,2012-10-09 08:35:00
2:55 AM,32.0,24.8,75,30.05,10.0,Calm,Calm,-,N/A,,Clear,0,2012-10-09 08:55:00
3:15 AM,32.0,24.8,75,30.05,10.0,Calm,Calm,-,N/A,,Clear,0,2012-10-09 09:15:00
3:35 AM,32.0,24.8,75,30.05,10.0,Calm,Calm,-,N/A,,Clear,0,2012-10-09 09:35:00
3:55 AM,32.0,26.6,80,30.05,10.0,Calm,Calm,-,N/A,,Mostly Cloudy,0,2012-10-09 09:55:00
4:15 AM,33.8,26.6,75,30.05,10.0,WSW,3.5,-,N/A,,Overcast,240,2012-10-09 10:15:00
4:35 AM,33.8,26.6,75,30.06,10.0,Calm,Calm,-,N/A,,Scattered Clouds,0,2012-10-09 10:35:00
4:55 AM,32.0,26.6,80,30.06,10.0,Calm,Calm,-,N/A,,Clear,0,2012-10-09 10:55:00
5:15 AM,30.2,24.8,80,30.06,10.0,ESE,4.6,-,N/A,,Clear,110,2012-10-09 11:15:00
5:35 AM,33.8,26.6,75,30.06,10.0,Calm,Calm,-,N/A,,Clear,0,2012-10-09 11:35:00
5:55 AM,30.2,24.8,80,30.07,10.0,Calm,Calm,-,N/A,,Clear,0,2012-10-09 11:55:00
6:15 AM,32.0,24.8,75,30.07,10.0,Calm,Calm,-,N/A,,Clear,0,2012-10-09 12:15:00
6:35 AM,32.0,24.8,75,30.08,10.0,Calm,Calm,-,N/A,,Clear,0,2012-10-09 12:35:00
6:55 AM,28.4,23.0,80,30.09,10.0,Calm,Calm,-,N/A,,Clear,0,2012-10-09 12:55:00
7:15 AM,28.4,23.0,80,30.09,10.0,Calm,Calm,-,N/A,,Clear,0,2012-10-09 13:15:00
7:35 AM,26.6,23.0,86,30.10,10.0,Calm,Calm,-,N/A,,Clear,0,2012-10-09 13:35:00
7:55 AM,28.4,23.0,80,30.10,7.0,Calm,Calm,-,N/A,,Clear,0,2012-10-09 13:55:00
8:15 AM,30.2,26.6,86,30.10,7.0,SE,4.6,-,N/A,,Clear,130,2012-10-09 14:15:00
8:35 AM,35.6,26.6,70,30.11,10.0,Calm,Calm,-,N/A,,Clear,0,2012-10-09 14:35:00
8:55 AM,37.4,28.4,70,30.11,10.0,Calm,Calm,-,N/A,,Clear,0,2012-10-09 14:55:00
9:15 AM,39.2,30.2,70,30.11,10.0,Calm,Calm,-,N/A,,Clear,0,2012-10-09 15:15:00
9:35 AM,41.0,30.2,65,30.11,10.0,Calm,Calm,-,N/A,,Clear,0,2012-10-09 15:35:00
9:55 AM,42.8,30.2,61,30.11,10.0,Calm,Calm,-,N/A,,Clear,0,2012-10-09 15:55:00
10:15 AM,44.6,26.6,49,30.11,10.0,Calm,Calm,-,N/A,,Clear,0,2012-10-09 16:15:00
10:35 AM,46.4,28.4,50,30.11,10.0,Calm,Calm,-,N/A,,Clear,0,2012-10-09 16:35:00
10:55 AM,50.0,24.8,37,30.11,10.0,Calm,Calm,-,N/A,,Clear,0,2012-10-09 16:55:00
11:15 AM,51.8,23.0,33,30.10,10.0,Calm,Calm,-,N/A,,Clear,0,2012-10-09 17:15:00
11:35 AM,53.6,24.8,33,30.10,10.0,Calm,Calm,-,N/A,,Clear,0,2012-10-09 17:35:00
12:15 PM,60.8,26.6,27,30.09,10.0,Calm,Calm,-,N/A,,Clear,0,2012-10-09 18:15:00
12:35 PM,62.6,26.6,26,30.08,10.0,NNE,3.5,-,N/A,,Clear,20,2012-10-09 18:35:00
12:55 PM,64.4,28.4,26,30.07,10.0,Calm,Calm,-,N/A,,Clear,0,2012-10-09 18:55:00
1:15 PM,68.0,26.6,21,30.07,10.0,Calm,Calm,-,N/A,,Clear,0,2012-10-09 19:15:00
1:35 PM,68.0,26.6,21,30.06,10.0,Calm,Calm,-,N/A,,Clear,0,2012-10-09 19:35:00
1:55 PM,69.8,24.8,18,30.05,10.0,Calm,Calm,-,N/A,,Clear,0,2012-10-09 19:55:00
2:15 PM,71.6,23.0,16,30.05,10.0,SW,3.5,-,N/A,,Clear,220,2012-10-09 20:15:00
2:35 PM,73.4,23.0,15,30.04,10.0,SW,10.4,-,N/A,,Clear,220,2012-10-09 20:35:00
3:15 PM,73.4,23.0,15,30.04,10.0,SW,10.4,19.6,N/A,,Clear,220,2012-10-09 21:15:00
3:35 PM,73.4,23.0,15,30.03,10.0,WSW,13.8,18.4,N/A,,Clear,250,2012-10-09 21:35:00
3:55 PM,71.6,23.0,16,30.03,10.0,SW,15.0,-,N/A,,Clear,230,2012-10-09 21:55:00
4:15 PM,71.6,23.0,16,30.03,10.0,SW,15.0,21.9,N/A,,Clear,230,2012-10-09 22:15:00
4:35 PM,71.6,23.0,16,30.03,10.0,WSW,13.8,-,N/A,,Clear,240,2012-10-09 22:35:00
4:55 PM,71.6,23.0,16,30.04,10.0,SW,12.7,-,N/A,,Clear,230,2012-10-09 22:55:00
5:15 PM,71.6,23.0,16,30.04,10.0,SW,9.2,-,N/A,,Clear,220,2012-10-09 23:15:00
5:35 PM,69.8,21.2,16,30.04,10.0,SW,9.2,-,N/A,,Clear,230,2012-10-09 23:35:00
5:55 PM,69.8,23.0,17,30.04,10.0,SW,10.4,-,N/A,,Clear,230,2012-10-09 23:55:00
6:15 PM,68.0,24.8,20,30.04,10.0,SW,9.2,-,N/A,,Clear,220,2012-10-10 00:15:00
6:35 PM,64.4,26.6,24,30.04,10.0,SW,8.1,-,N/A,,Clear,230,2012-10-10 00:35:00
6:55 PM,60.8,26.6,27,30.05,10.0,SW,3.5,-,N/A,,Clear,230,2012-10-10 00:55:00
7:15 PM,60.8,26.6,27,30.05,10.0,NW,3.5,-,N/A,,Clear,310,2012-10-10 01:15:00
7:35 PM,50.0,28.4,43,30.06,10.0,Calm,Calm,-,N/A,,Clear,0,2012-10-10 01:35:00
7:55 PM,50.0,26.6,40,30.06,10.0,ESE,4.6,-,N/A,,Clear,120,2012-10-10 01:55:00
8:15 PM,48.2,26.6,43,30.07,10.0,East,6.9,-,N/A,,Clear,100,2012-10-10 02:15:00
8:35 PM,46.4,26.6,46,30.08,10.0,East,8.1,-,N/A,,Clear,100,2012-10-10 02:35:00
9:15 PM,48.2,26.6,43,30.09,10.0,Calm,Calm,-,N/A,,Clear,0,2012-10-10 03:15:00
9:35 PM,41.0,26.6,57,30.10,10.0,Calm,Calm,-,N/A,,Clear,0,2012-10-10 03:35:00
9:55 PM,42.8,26.6,53,30.11,10.0,East,4.6,-,N/A,,Clear,100,2012-10-10 03:55:00
10:15 PM,41.0,26.6,57,30.11,10.0,East,4.6,-,N/A,,Clear,100,2012-10-10 04:15:00
10:35 PM,39.2,26.6,61,30.11,10.0,East,4.6,-,N/A,,Clear,100,2012-10-10 04:35:00
10:55 PM,41.0,26.6,57,30.11,10.0,SE,4.6,-,N/A,,Clear,130,2012-10-10 04:55:00
11:15 PM,42.8,26.6,53,30.12,10.0,Calm,Calm,-,N/A,,Clear,0,2012-10-10 05:15:00
11:35 PM,37.4,26.6,65,30.12,10.0,Calm,Calm,-,N/A,,Clear,0,2012-10-10 05:35:00
11:55 PM,35.6,26.6,70,30.12,10.0,Calm,Calm,-,N/A,,Clear,0,2012-10-10 05:55:00